SAUDISAT 1C (SO-50) 1 27607U 02058C 26145.43020300 .00000782 00000+0 10978-3 0 9991 2 27607 64.5514 199.3924 0075599 266.6349 92.6107 14.82991152261081 SAUDISAT 2 1 28371U 04025F 26145.43011950 .00000260 00000+0 69131-4 0 9994 2 28371 98.5506 144.8248 0024908 9.6524 350.5147 14.56667660162434 SAUDISAT 3 1 31118U 07012B 26145.61386632 .00000232 00000+0 45657-4 0 9994 2 31118 98.1446 96.0018 0013474 302.5205 57.4699 14.71409515 24427 PISAT 1 41784U 16059B 26145.46120804 .00000803 00000+0 14452-3 0 9997 2 41784 97.8179 146.8917 0027487 278.7208 81.0885 14.68937166516402 FLYING LAPTOP 1 42831U 17042G 26145.58734962 .00003512 00000+0 27890-3 0 9993 2 42831 97.4590 302.0063 0018276 197.2979 162.7625 15.00975583483069 SALSAT 1 46495U 20068K 26144.98774178 .00007014 00000+0 24856-3 0 9991 2 46495 97.8855 146.6473 0010593 33.8053 326.3859 15.29404891311816